DELTA 1 DEB, 21443

Orbit data source: Space-Track

DELTA 1 DEB, 21443 is space debris in SSO originally from a launch on Thu, 12 Jun 1975 UTC launched from the Air Force Western Test Range (AFWTR). Debris objects in space refer to the collection of defunct objects orbiting the Earth. Examples of debris include non-operational satellites, rocket bodies, and fragments generated from explosions, collisions, or faulty payload assembly.

Loading next visibility...
Identifier
21443, 1975-052EB
Orbit
SSO
Country
Flag of USUS
Related business
Manufacturer
Unknown
Mission
Spacecraft
Bus & Motor
Unknown
Mass
Unknown
Launch date (UTC)
1975-06-12 (51 years ago)
Launch vehicle
Unknown
Launch site
Air Force Western Test Range (AFWTR)
Object type
Payload
Rocket body
Debris
Shape & HBR
Unknown shape, 0.1 m
Radar Cross Section
Small (<0.1 m²)

Expand to show TLE details & history
Last TLE update: 7 hours ago

TLE from 7 hours ago
0 DELTA 1 DEB
1 21443U 75052EB  26127.14617948  .00000018  00000-0  12398-3 0  9996
2 21443  99.8245 259.5269 0068540  52.4982 122.3212 13.31701423701178
Epoch: 2026-05-07T03:30Z
TLE epoch observation values (Epoch: 2026-05-07T03:30:29.907Z)
Latitude
4.36875°
Longitude
162.65996°
Altitude
1,170.457 km
Speed
7.255 km/s
True Right ascension
05h 21m 07s
True Declination
4° 20' 39"
Sunlit
Object was in daylight at epoch
Visualization orbit readout
Latitude
Unknown
Longitude
Unknown
Altitude
Unknown
Speed
Unknown
Apparent Right ascension
Unknown
Apparent Declination
Unknown
Sunlit
N/A
Visualization observer readout
Local Sidereal Time
18:16:52
Azimuth
Unknown
Elevation
Unknown
Doppler factor
Unknown
Orbital elements
Apogee altitude
1,189.198 km
Perigee altitude
1,086.171 km
Semi-major axis
7,515.822 km
Eccentricity
0.00685
Inclination
99.8245°
RAAN
259.5269°
Arg. of periapsis
52.4982°
True anomaly
122.98188°
Mean anomaly
122.3212°
Eccentric anomaly
122.65184°
Mean motion
3.33103 °/min
Orbital period
108.07 mins
BSTAR
0.00012398
Loading maneuver chart data...
Computing Atmospheric mass density...
Loading historical data...
Loading historical data...
Loading historical data...
Loading historical data...
Loading historical data...
Loading historical data...
Loading historical data...

Documentation

Showing up to 5 results
|